Observations for Trim Market St
| Time | AQI | Temp °C | Hum % | Pres Pa | CO μg/m³ | H₂S μg/m³ | NO μg/m³ | NO₂ μg/m³ | O₃ μg/m³ | SO₂ μg/m³ | PM1 μg/m³ | PM2.5 μg/m³ | PM10 μg/m³ |
|---|---|---|---|---|---|---|---|---|---|---|---|---|---|
| Wednesday 15 July 2026 | |||||||||||||
| 14:43 | 1 | 36.5 | 31 | 66,586 | 0 | 0 | 0 | 10.25 | 20.79 | 0.54 | 7.84 | 11.42 | 15.27 |
| 14:42 | 1 | 36.6 | 30 | 66,586 | 0 | 0 | 0 | 6.63 | 24.67 | 0.52 | 7.84 | 13.59 | 17.86 |
| 14:40 | 1 | 36.7 | 30 | 66,621 | 0 | 0 | 0 | 0.83 | 31.17 | 1.14 | 8.55 | 13.06 | 20.46 |
| 14:39 | 1 | 36.7 | 30 | 66,606 | 0 | 0 | 0 | 0 | 22.72 | 1 | 6.41 | 10.36 | 14.43 |
| 14:28 | 1 | 36.9 | 30 | 66,621 | 0 | 0 | 0 | 0 | 15.73 | 1.44 | 7.13 | 10.88 | 13.55 |
| 14:27 | 1 | 36.9 | 31 | 66,635 | 0 | 0 | 0 | 1.83 | 25.11 | 1.14 | 5.7 | 9.78 | 12.69 |
| 14:26 | 1 | 36.9 | 31 | 66,617 | 0 | 0 | 0 | 4.62 | 28.43 | 0.82 | 7.13 | 10.32 | 12.68 |
| 14:25 | 1 | 36.9 | 31 | 66,596 | 0 | 0 | 0 | 2.12 | 28.12 | 0.64 | 7.13 | 10.86 | 13.54 |
| 14:24 | 1 | 36.8 | 31 | 66,596 | 0 | 0 | 0 | 7.85 | 35.8 | 0.71 | 5.7 | 9.24 | 10.96 |
| 14:23 | 1 | 36.8 | 31 | 66,596 | 0 | 0 | 0 | 10.97 | 27.42 | 0 | 5.7 | 9.79 | 11.83 |
| 14:22 | 1 | 36.7 | 31 | 66,594 | 0 | 0 | 0 | 2.6 | 22.74 | 0.46 | 7.13 | 10.33 | 13.55 |
| 14:21 | 1 | 36.7 | 31 | 66,598 | 0 | 0 | 0 | 5.37 | 40.5 | 0.45 | 4.99 | 9.24 | 11.82 |
| 14:19 | 1 | 36.6 | 31 | 66,578 | 0 | 0 | 0 | 0 | 32.38 | 0.8 | 7.13 | 11.4 | 14.4 |
| 14:18 | 1 | 36.6 | 31 | 66,576 | 0 | 0 | 0 | 0 | 29.06 | 1.48 | 7.13 | 10.85 | 14.4 |
| 14:13 | 1 | 36.4 | 31 | 66,560 | 0 | 0 | 0 | 0.55 | 25.74 | 0.61 | 7.13 | 11.4 | 16.12 |
| 14:10 | 1 | 36.4 | 31 | 66,547 | 0 | 0.97 | 0 | 4.66 | 38.92 | 1 | 7.84 | 11.95 | 16.13 |
| 14:04 | 1 | 36.7 | 30 | 66,547 | 0 | 0 | 0 | 0 | 36.54 | 1.39 | 8.55 | 13.08 | 18.76 |
| 14:03 | 1 | 36.8 | 30 | 66,541 | 0 | 0 | 0 | 0 | 32.59 | 1.3 | 7.13 | 10.91 | 14.44 |
| 13:58 | 1 | 37 | 30 | 66,590 | 0 | 0 | 0 | 0 | 30.95 | 1.2 | 6.41 | 11.97 | 15.28 |
| 13:57 | 1 | 37 | 30 | 66,619 | 0 | 0 | 0 | 0.83 | 28.74 | 1.3 | 7.13 | 8.71 | 10.11 |